Weather History for KSFO - June, 2013

Change the Weather History Date:

Thursday, June 6, 2013

  Actual Average Record
Temperature  
Mean Temperature 60 °F 61 °F  
Max Temperature 66 °F 70 °F 88 °F (1983)
Min Temperature 53 °F 53 °F 46 °F (1963)
Degree Days  
Heating Degree Days 5 4  
Month to date heating degree days 23 24  
Since 1 June heating degree days 23 24  
Since 1 July heating degree days 2574 2572  
Cooling Degree Days 0 1  
Month to date cooling degree days 0 3  
Year to date cooling degree days 27 22  
Since 1 June cooling degree days 0 3  
Growing Degree Days 10 (Base 50)    
Moisture  
Dew Point 49 °F    
Average Humidity 70    
Maximum Humidity 83    
Minimum Humidity 56    
Precipitation  
Precipitation 0.00 in 0.00 in 0.60 in (1988)
Month to date precipitation 0.00 0.04  
Year to date precipitation 1.84 13.01  
Since 1 July precipitation 12.84  
Sea Level Pressure  
Sea Level Pressure 29.93 in    
Wind  
Wind Speed 13 mph (WNW)    
Max Wind Speed 24 mph    
Max Gust Speed 30 mph    
Visibility 10 miles    
Events      
T = Trace of Precipitation, MM = Missing Value Source: NWS Daily Summary

Daily Weather History Graph

Daily Weather History Graph

Search for Another Location

Airport or City:

Trip Planner

Search our weather history database for the weather conditions in past years. The results will help you decide how hot, cold, wet, or windy it might be!

Date:

Astronomy

Jun. 06, 2013 Rise Set
Actual Time 5:48 AM PDT 8:28 PM PDT
Civil Twilight 5:17 AM PDT 8:59 PM PDT
Nautical Twilight 4:38 AM PDT 9:38 PM PDT
Astronomical Twilight 3:55 AM PDT 10:21 PM PDT
Moon 4:31 AM PDT (6/6) 6:56 PM PDT (6/6)
Length of Visible Light 15h 42m
Length of Day
14h 40m
Waning Crescent, 3% of the Moon is Illuminated
Jun 6
Waning Crescent
Jun 8
New
Jun 16
First Quarter
Jun 23
Full
Jun 29
Last Quarter

Hourly Weather History & Observations

Time (PDT) Temp. Dew Point Humidity Pressure Visibility Wind Dir Wind Speed Gust Speed Precip Events Conditions
12:56 AM 54.0 °F 48.0 °F 80% 29.97 in 10.0 mi West 8.1 mph - N/A   Mostly Cloudy
1:56 AM 54.0 °F 48.0 °F 80% 29.96 in 10.0 mi West 8.1 mph - N/A   Mostly Cloudy
2:23 AM 53.6 °F 48.2 °F 82% 29.96 in 10.0 mi West 6.9 mph - N/A   Scattered Clouds
2:56 AM 54.0 °F 48.0 °F 80% 29.95 in 10.0 mi West 10.4 mph - N/A   Mostly Cloudy
3:56 AM 53.1 °F 48.0 °F 83% 29.95 in 10.0 mi West 9.2 mph - N/A   Mostly Cloudy
4:56 AM 53.1 °F 48.0 °F 83% 29.95 in 10.0 mi West 9.2 mph - N/A   Mostly Cloudy
5:56 AM 53.1 °F 48.0 °F 83% 29.96 in 10.0 mi West 8.1 mph - N/A   Mostly Cloudy
6:56 AM 54.0 °F 48.0 °F 80% 29.95 in 10.0 mi WNW 6.9 mph - N/A   Mostly Cloudy
7:56 AM 55.9 °F 48.0 °F 75% 29.96 in 10.0 mi West 4.6 mph - N/A   Mostly Cloudy
8:56 AM 57.9 °F 48.0 °F 70% 29.97 in 10.0 mi WNW 8.1 mph - N/A   Mostly Cloudy
9:56 AM 60.1 °F 48.9 °F 67% 29.96 in 10.0 mi North 5.8 mph - N/A   Scattered Clouds
10:56 AM 62.1 °F 50.0 °F 65% 29.95 in 10.0 mi NNE 6.9 mph - N/A   Partly Cloudy
11:56 AM 63.0 °F 50.0 °F 63% 29.95 in 10.0 mi NNE 6.9 mph - N/A   Partly Cloudy
12:56 PM 64.9 °F 48.9 °F 56% 29.94 in 10.0 mi WNW 13.8 mph - N/A   Partly Cloudy
1:56 PM 64.0 °F 48.9 °F 58% 29.92 in 10.0 mi WNW 18.4 mph - N/A   Partly Cloudy
2:56 PM 64.9 °F 50.0 °F 58% 29.91 in 10.0 mi WNW 20.7 mph - N/A   Partly Cloudy
3:56 PM 63.0 °F 48.9 °F 60% 29.89 in 10.0 mi WNW 24.2 mph - N/A   Scattered Clouds
4:56 PM 61.0 °F 48.9 °F 64% 29.88 in 10.0 mi WNW 23.0 mph - N/A   Scattered Clouds
5:47 PM 60.8 °F 48.2 °F 63% 29.88 in 10.0 mi WNW 20.7 mph - N/A   Scattered Clouds
5:56 PM 59.0 °F 48.9 °F 69% 29.88 in 10.0 mi WNW 20.7 mph - N/A   Scattered Clouds
6:56 PM 57.9 °F 48.9 °F 72% 29.88 in 10.0 mi WNW 17.3 mph - N/A   Scattered Clouds
7:56 PM 55.9 °F 48.9 °F 77% 29.89 in 10.0 mi West 20.7 mph - N/A   Scattered Clouds
8:56 PM 54.0 °F 48.9 °F 83% 29.90 in 10.0 mi WNW 19.6 mph - N/A   Scattered Clouds
9:56 PM 54.0 °F 48.9 °F 83% 29.92 in 10.0 mi WNW 13.8 mph - N/A   Scattered Clouds
10:56 PM 54.0 °F 48.9 °F 83% 29.91 in 10.0 mi WNW 13.8 mph - N/A   Partly Cloudy
11:56 PM 53.1 °F 48.9 °F 86% 29.92 in 10.0 mi West 12.7 mph - N/A   Partly Cloudy